Hourly Data Report for May 24, 2012

All times are specified in Local Standard Time (LST). Add 1 hour to adjust for Daylight Saving Time where and when it is observed.

YARMOUTH A
NOVA SCOTIA

43°49'37.000" N
66°05'17.000" W
42.90 m
8206495
71603
YQI

Download Data

Hourly Data (May 2012)
Hourly Data Report for May 24, 2012
Temp Definition
°C
Dew Point Temp Definition
°C
Rel Hum Definition
%
Wind Dir Definition
10's deg

Wind Spd Definition
km/h
Visibility Definition
km
Stn Press Definition
kPa
Hmdx Definition


Wind Chill Definition


Weather Definition


TIME
00:00 Legend Double Dagger 14.8 12.7 87 5 10 10.0 101.32     LegendNANA
01:00 Legend Double Dagger 13.1 11.8 92 5 8 10.0 101.40     LegendNANA
02:00 Legend Double Dagger 12.0 11.2 95 4 10 10.0 101.46     Clear
03:00 Legend Double Dagger 11.4 10.9 97 4 7 10.0 101.53     LegendNANA
04:00 Legend Double Dagger 11.5 11.2 98 6 5 10.0 101.61     LegendNANA
05:00 Legend Double Dagger 12.2 11.4 95 9 10 10.0 101.69     Mostly Cloudy
06:00 Legend Double Dagger 12.2 11.3 94 9 15 10.0 101.76     LegendNANA
07:00 Legend Double Dagger 12.4 11.5 94 9 13 10.0 101.85     LegendNANA
08:00 Legend Double Dagger 14.9 12.6 86 11 9 10.0 101.89     Mostly Cloudy
09:00 Legend Double Dagger 17.8 12.5 71 9 8 10.0 101.91     LegendNANA
10:00 Legend Double Dagger 19.5 13.3 67 8 10 10.0 101.94     LegendNANA
11:00 Legend Double Dagger 18.7 13.0 69 22 15 10.0 102.00     Mostly Cloudy
12:00 Legend Double Dagger 16.7 12.5 76 27 17 10.0 102.10     LegendNANA
13:00 Legend Double Dagger 14.8 11.0 78 29 17 10.0 102.13     LegendNANA
14:00 Legend Double Dagger 14.8 9.9 72 28 17 10.0 102.12     Cloudy
15:00 Legend Double Dagger 15.9 10.3 69 28 14 10.0 102.11     LegendNANA
16:00 Legend Double Dagger 16.1 10.9 71 29 14 10.0 102.10     LegendNANA
17:00 Legend Double Dagger 16.0 10.4 69 30 14 10.0 102.09     Mostly Cloudy
18:00 Legend Double Dagger 17.2 10.6 65 15 15 10.0 102.11     LegendNANA
19:00 Legend Double Dagger 14.5 10.4 76 14 18 10.0 102.10     LegendNANA
20:00 Legend Double Dagger 11.6 9.9 89 18 11 10.0 102.16     Mainly Clear
21:00 Legend Double Dagger 10.7 9.3 91 13 13 10.0 102.20     LegendNANA
22:00 Legend Double Dagger 10.2 9.6 96 12 16 10.0 102.23     LegendNANA
23:00 Legend Double Dagger 9.6 9.3 98 14 18 4.8 102.26     Fog

Notes on Data Quality.

Legend

  • E = Estimated
  • M = Missing
  • NA = Not Available
  • ‡ = Partner data that is not subject to review by the National Climate Archives
Date modified: